• En España
  • Lista de países
  • Para 7 días
  • Temperatura del agua
  • Mapa Satelital
  • El tiempo en el mapa
  • Informadores
  • user-avatar
    Iniciar sesión

    Tiempo cada hora Canberra

    Hoy, 23 Noviembre, Jueves

    Tiempo Temperatura Precipitaciones Viento Presión Humedad
    00:00 +14°C° 0 mm 1 mps 709 mmHg 96%
    01:00 +13°C° 0 mm 1 mps 709 mmHg 96%
    02:00 +13°C° 0 mm 1 mps 709 mmHg 97%
    03:00 +12°C° 0 mm 1 mps 709 mmHg 97%
    04:00 +12°C° 0 mm 1 mps 709 mmHg 98%
    05:00 +14°C° 0 mm 1 mps 709 mmHg 91%
    06:00 +15°C° 0 mm 1 mps 710 mmHg 85%
    07:00 +18°C° 0 mm 1 mps 710 mmHg 78%
    08:00 +20°C° 0,1 mm 1 mps 710 mmHg 68%
    09:00 +21°C° 0,1 mm 2 mps 710 mmHg 58%
    10:00 +25°C° 0,1 mm 2 mps 710 mmHg 48%
    11:00 +25°C° 0,3 mm 2 mps 710 mmHg 45%
    12:00 +26°C° 0,3 mm 2 mps 710 mmHg 42%
    13:00 +27°C° 0,3 mm 2 mps 709 mmHg 39%
    14:00 +26°C° 0,1 mm 1 mps 709 mmHg 42%
    15:00 +25°C° 0,1 mm 1 mps 709 mmHg 46%
    16:00 +21°C° 0 mm 2 mps 708 mmHg 61%
    17:00 +20°C° 0 mm 2 mps 708 mmHg 66%
    18:00 +19°C° 0 mm 2 mps 708 mmHg 72%
    19:00 +18°C° 0 mm 1 mps 709 mmHg 77%
    20:00 +16°C° 0,2 mm 1 mps 709 mmHg 82%
    21:00 +16°C° 0,2 mm 1 mps 709 mmHg 86%
    22:00 +15°C° 0,2 mm 1 mps 709 mmHg 91%
    23:00 +14°C° 0,3 mm 1 mps 709 mmHg 92%

    Mañana, 24 Noviembre, Viernes

    Tiempo Temperatura Precipitaciones Viento Presión Humedad
    00:00 +14°C° 0,3 mm 1 mps 709 mmHg 92%
    01:00 +14°C° 0,3 mm 1 mps 709 mmHg 93%
    02:00 +14°C° 0 mm 1 mps 708 mmHg 93%
    03:00 +13°C° 0 mm 1 mps 708 mmHg 93%
    04:00 +13°C° 0 mm 1 mps 708 mmHg 93%
    05:00 +15°C° 0 mm 1 mps 709 mmHg 85%
    06:00 +18°C° 0 mm 1 mps 709 mmHg 78%
    07:00 +20°C° 0 mm 1 mps 710 mmHg 71%
    08:00 +23°C° 0 mm 2 mps 710 mmHg 60%
    09:00 +25°C° 0 mm 3 mps 710 mmHg 48%
    10:00 +28°C° 0 mm 3 mps 711 mmHg 37%
    11:00 +28°C° 0 mm 3 mps 710 mmHg 36%
    12:00 +29°C° 0 mm 3 mps 710 mmHg 34%
    13:00 +29°C° 0 mm 2 mps 710 mmHg 33%
    14:00 +29°C° 0 mm 2 mps 710 mmHg 35%
    15:00 +28°C° 0 mm 2 mps 709 mmHg 38%
    16:00 +28°C° 0 mm 1 mps 709 mmHg 40%
    17:00 +26°C° 0 mm 1 mps 709 mmHg 46%
    18:00 +24°C° 0 mm 1 mps 709 mmHg 52%
    19:00 +22°C° 0 mm 1 mps 709 mmHg 57%
    20:00 +21°C° 0,1 mm 1 mps 710 mmHg 63%
    21:00 +19°C° 0,1 mm 1 mps 710 mmHg 68%
    22:00 +18°C° 0,1 mm 1 mps 710 mmHg 73%
    23:00 +18°C° 0,1 mm 1 mps 710 mmHg 76%

    Pasado mañana, 25 Noviembre, Sábado

    Tiempo Temperatura Precipitaciones Viento Presión Humedad
    00:00 +16°C° 0,1 mm 1 mps 710 mmHg 80%
    01:00 +16°C° 0,1 mm 1 mps 710 mmHg 83%
    02:00 +16°C° 0 mm 1 mps 710 mmHg 84%
    03:00 +15°C° 0 mm 1 mps 709 mmHg 84%
    04:00 +15°C° 0 mm 1 mps 709 mmHg 85%
    05:00 +18°C° 0 mm 1 mps 710 mmHg 77%
    06:00 +20°C° 0 mm 1 mps 710 mmHg 69%
    07:00 +22°C° 0 mm 1 mps 711 mmHg 61%
    08:00 +25°C° 0 mm 1 mps 711 mmHg 52%
    09:00 +27°C° 0 mm 1 mps 711 mmHg 42%
    10:00 +30°C° 0 mm 1 mps 711 mmHg 33%
    11:00 +30°C° 0 mm 1 mps 711 mmHg 33%
    12:00 +30°C° 0 mm 1 mps 711 mmHg 32%
    13:00 +31°C° 0 mm 1 mps 710 mmHg 31%
    14:00 +30°C° 0,1 mm 2 mps 710 mmHg 36%
    15:00 +28°C° 0,1 mm 2 mps 710 mmHg 40%
    16:00 +27°C° 0,1 mm 3 mps 709 mmHg 44%
    17:00 +25°C° 1 mm 2 mps 709 mmHg 53%
    18:00 +23°C° 1 mm 2 mps 710 mmHg 62%
    19:00 +20°C° 1 mm 2 mps 710 mmHg 71%
    20:00 +19°C° 0,6 mm 2 mps 710 mmHg 77%
    21:00 +18°C° 0,6 mm 2 mps 710 mmHg 83%
    22:00 +17°C° 0,6 mm 2 mps 710 mmHg 89%
    23:00 +18°C° 0,2 mm 1 mps 710 mmHg 89%

    26 Noviembre, Domingo

    Tiempo Temperatura Precipitaciones Viento Presión Humedad
    00:00 +16°C° 0,2 mm 1 mps 710 mmHg 90%
    01:00 +16°C° 0,2 mm 1 mps 709 mmHg 91%
    02:00 +16°C° 0 mm 1 mps 709 mmHg 91%
    03:00 +15°C° 0 mm 1 mps 708 mmHg 90%
    04:00 +15°C° 0 mm 1 mps 708 mmHg 90%
    05:00 +16°C° 0 mm 1 mps 709 mmHg 83%
    06:00 +19°C° 0 mm 1 mps 709 mmHg 76%
    07:00 +21°C° 0 mm 1 mps 710 mmHg 68%
    08:00 +24°C° 0 mm 1 mps 710 mmHg 57%
    09:00 +26°C° 0 mm 2 mps 710 mmHg 46%
    10:00 +29°C° 0 mm 2 mps 710 mmHg 35%
    11:00 +30°C° 0 mm 2 mps 710 mmHg 33%
    12:00 +31°C° 0 mm 2 mps 710 mmHg 31%
    13:00 +31°C° 0 mm 2 mps 709 mmHg 29%
    14:00 +29°C° 0,2 mm 3 mps 709 mmHg 39%
    15:00 +26°C° 0,2 mm 3 mps 708 mmHg 50%
    16:00 +23°C° 0,2 mm 4 mps 707 mmHg 60%
    17:00 +21°C° 0,5 mm 3 mps 707 mmHg 66%
    18:00 +20°C° 0,5 mm 2 mps 707 mmHg 73%
    19:00 +20°C° 0,5 mm 1 mps 707 mmHg 79%
    20:00 +19°C° 0,4 mm 1 mps 708 mmHg 82%
    21:00 +18°C° 0,4 mm 1 mps 708 mmHg 84%
    22:00 +18°C° 0,4 mm 1 mps 708 mmHg 86%
    23:00 +18°C° 0,6 mm 1 mps 708 mmHg 88%

    27 Noviembre, Lunes

    Tiempo Temperatura Precipitaciones Viento Presión Humedad
    00:00 +18°C° 0,6 mm 1 mps 707 mmHg 90%
    01:00 +18°C° 0,6 mm 1 mps 707 mmHg 91%
    02:00 +18°C° 0,1 mm 1 mps 707 mmHg 92%
    03:00 +18°C° 0,1 mm 1 mps 707 mmHg 92%
    04:00 +16°C° 0,1 mm 1 mps 707 mmHg 92%
    05:00 +19°C° 0 mm 1 mps 708 mmHg 88%
    06:00 +20°C° 0 mm 1 mps 708 mmHg 84%
    07:00 +21°C° 0 mm 1 mps 708 mmHg 80%
    08:00 +24°C° 0,4 mm 1 mps 709 mmHg 70%
    09:00 +26°C° 0,4 mm 2 mps 709 mmHg 59%
    10:00 +28°C° 0,4 mm 2 mps 709 mmHg 48%
    11:00 +29°C° 0,4 mm 2 mps 709 mmHg 47%
    12:00 +29°C° 0,4 mm 2 mps 709 mmHg 47%
    13:00 +29°C° 0,4 mm 2 mps 709 mmHg 46%
    14:00 +28°C° 0,7 mm 2 mps 708 mmHg 50%
    15:00 +27°C° 0,7 mm 2 mps 708 mmHg 53%
    16:00 +27°C° 0,7 mm 2 mps 708 mmHg 57%
    17:00 +24°C° 1,2 mm 3 mps 708 mmHg 69%
    18:00 +21°C° 1,2 mm 3 mps 709 mmHg 80%
    19:00 +19°C° 1,2 mm 3 mps 709 mmHg 92%
    20:00 +18°C° 1,5 mm 3 mps 710 mmHg 93%
    21:00 +18°C° 1,5 mm 3 mps 710 mmHg 94%
    22:00 +18°C° 1,5 mm 3 mps 711 mmHg 95%
    23:00 +18°C° 0 mm 2 mps 711 mmHg 95%

    28 Noviembre, Martes

    Tiempo Temperatura Precipitaciones Viento Presión Humedad
    00:00 +17°C° 0 mm 2 mps 711 mmHg 96%
    01:00 +17°C° 0 mm 2 mps 711 mmHg 96%
    02:00 +17°C° 0 mm 2 mps 710 mmHg 96%
    03:00 +17°C° 0 mm 2 mps 710 mmHg 96%
    04:00 +17°C° 0 mm 2 mps 710 mmHg 96%
    05:00 +17°C° 0 mm 2 mps 711 mmHg 93%
    06:00 +18°C° 0 mm 2 mps 712 mmHg 90%
    07:00 +19°C° 0 mm 3 mps 712 mmHg 87%
    08:00 +20°C° 0 mm 3 mps 713 mmHg 79%
    09:00 +21°C° 0 mm 3 mps 713 mmHg 72%
    10:00 +24°C° 0 mm 3 mps 713 mmHg 65%
    11:00 +25°C° 0,1 mm 3 mps 713 mmHg 61%
    12:00 +26°C° 0,1 mm 3 mps 713 mmHg 58%
    13:00 +27°C° 0,1 mm 3 mps 713 mmHg 55%
    14:00 +26°C° 0,1 mm 4 mps 713 mmHg 56%
    15:00 +26°C° 0,1 mm 4 mps 712 mmHg 57%
    16:00 +26°C° 0,1 mm 4 mps 712 mmHg 58%
    17:00 +23°C° 0,1 mm 4 mps 713 mmHg 67%
    18:00 +21°C° 0,1 mm 3 mps 713 mmHg 75%
    19:00 +20°C° 0,1 mm 3 mps 713 mmHg 83%
    20:00 +19°C° 0 mm 3 mps 714 mmHg 87%
    21:00 +18°C° 0 mm 3 mps 714 mmHg 91%
    22:00 +17°C° 0 mm 2 mps 714 mmHg 95%
    23:00 +17°C° 0 mm 2 mps 714 mmHg 95%
    Mostrar más